Lucknow, India

10:29 AM IST on March 30, 2017 (GMT +0530)
Lucknow

Weather History for VILK - December, 2012

Change the Weather History Date:

Saturday, December 29, 2012

  Actual Average Record
Temperature  
Mean Temperature 52 °F -  
Max Temperature 66 °F 65 °F 78 °F (2010)
Min Temperature 38 °F 47 °F 38 °F (2012)
Degree Days  
Heating Degree Days 13    
Growing Degree Days 2 (Base 50)    
Moisture  
Dew Point 44 °F    
Average Humidity 80    
Maximum Humidity 100    
Minimum Humidity 37    
Precipitation  
Precipitation 0.00 in - - ()
Sea Level Pressure  
Sea Level Pressure 29.94 in    
Wind  
Wind Speed 1 mph ()    
Max Wind Speed 4 mph    
Max Gust Speed -    
Visibility 0.5 miles    
Events Fog    
Averages and records for this station are not official NWS values.
T = Trace of Precipitation, MM = Missing Value Source: Averaged Metar Reports

Daily Weather History Graph

Daily Weather History Graph

Search for Another Location

Airport or City:

Trip Planner

Search our weather history database for the weather conditions in past years. The results will help you decide how hot, cold, wet, or windy it might be!

Date:

Astronomy

Dec. 29, 2012 Rise Set
Actual Time 6:54 AM IST 5:23 PM IST
Civil Twilight 6:28 AM IST 5:48 PM IST
Nautical Twilight 5:59 AM IST 6:17 PM IST
Astronomical Twilight 5:31 AM IST 6:45 PM IST
Moon 6:21 PM IST (12/29) 7:15 AM IST (12/29)
Length of Visible Light 11h 19m
Length of Day
10h 28m
Full, 99% of the Moon is Illuminated
Dec 29
Full
Jan 5
Last Quarter
Jan 12
New
Jan 19
First Quarter
Jan 27
Full

Hourly Weather History & Observations

Time (IST) Temp. Dew Point Humidity Pressure Visibility Wind Dir Wind Speed Gust Speed Precip Events Conditions
12:00 AM 42.8 °F 42.8 °F 100% 29.95 in 0.0 mi Calm Calm - N/A Fog Fog
1:00 AM 42.8 °F 42.8 °F 100% 29.92 in 0.0 mi Variable 2.3 mph - N/A Fog Fog
2:00 AM 42.8 °F 42.8 °F 100% 29.92 in 0.0 mi Calm Calm - N/A Fog Fog
4:00 AM 42.8 °F 42.8 °F 100% 29.92 in 0.0 mi Variable 2.3 mph - N/A Fog Fog
5:30 AM 42.8 °F 42.8 °F 100% 29.92 in 0.0 mi Variable 2.3 mph - N/A Fog Fog
6:00 AM 42.8 °F 42.8 °F 100% 29.92 in 0.0 mi Calm Calm - N/A Fog Fog
6:30 AM 42.8 °F 42.8 °F 100% 29.92 in 0.0 mi Calm Calm - N/A Fog Fog
7:00 AM 42.8 °F 42.8 °F 100% 29.95 in 0.0 mi Calm Calm - N/A Fog Fog
8:00 AM 41.0 °F 41.0 °F 100% 29.98 in 0.0 mi Calm Calm - N/A Fog Fog
8:30 AM 42 °F 41 °F 96% 30.02 in 0 mi 2.3 mph - - Fog Heavy Fog
8:30 AM 42.8 °F 41.0 °F 93% 29.98 in 0.0 mi Variable 2.3 mph - N/A Fog Fog
9:00 AM 42.8 °F 41.0 °F 93% 30.01 in 0.0 mi Variable 2.3 mph - N/A Fog Fog
10:00 AM 42.8 °F 41.0 °F 93% 30.01 in 0.0 mi Variable 2.3 mph - N/A Fog Fog
11:30 AM 49 °F 47 °F 91% 30.03 in 0 mi 2.3 mph - - Fog Patches of Fog
12:00 PM 55.4 °F 48.2 °F 77% 29.98 in 0.7 mi Variable 2.3 mph - N/A   Scattered Clouds
12:30 PM 57.2 °F 48.2 °F 72% 29.98 in 0.7 mi Variable 2.3 mph - N/A   Mist
2:00 PM 64.4 °F 46.4 °F 52% 29.92 in 1.2 mi Variable 2.3 mph - N/A   Haze
2:30 PM 65 °F 45 °F 37% 29.94 in 1 mi 2.3 mph - -   Haze
3:00 PM 66.2 °F 41.0 °F 40% 29.89 in 1.6 mi NW 3.5 mph - N/A   Haze
4:00 PM 66.2 °F 42.8 °F 43% 29.89 in 1.9 mi Variable 2.3 mph - N/A   Haze
4:30 PM 66.2 °F 42.8 °F 43% 29.89 in 1.9 mi Variable 2.3 mph - N/A   Haze
5:00 PM 64.4 °F 44.6 °F 49% 29.89 in 1.6 mi Variable 2.3 mph - N/A   Haze
5:30 PM 62.6 °F 44.6 °F 52% 29.89 in 1.2 mi Variable 2.3 mph - N/A   Haze
6:00 PM 57.2 °F 46.4 °F 67% 29.92 in 1.2 mi Calm Calm - N/A   Haze
6:30 PM 55.4 °F 46.4 °F 72% 29.92 in 1.1 mi Variable 2.3 mph - N/A   Haze
7:30 PM 51.8 °F 46.4 °F 82% 29.92 in 0.6 mi Calm Calm - N/A Fog Shallow Fog
8:30 PM 50 °F 46 °F 82% 29.96 in 0 mi Calm Calm - - Fog Partial Fog
8:30 PM 50.0 °F 46.4 °F 87% 29.92 in 0.3 mi Calm Calm - N/A Fog Fog
9:00 PM 50.0 °F 46.4 °F 87% 29.92 in 0.3 mi Calm Calm - N/A Fog Fog
11:00 PM 44.6 °F 42.8 °F 93% 29.95 in 0.0 mi Calm Calm - N/A Fog Fog
11:30 PM 45 °F 43 °F 92% 29.99 in 0 mi Calm Calm - - Fog Partial Fog